Regional Weather Roundup
Issued by NWS

Home | Current Version | Previous Version | Text Only | Print | Product List | Glossary Off
Versions: 1 2 3 4 5 6 7 8 9 10 11 12 13 14 15 16 17 18 19 20 21 22 23 24 25 26 27 28 29 30 31 32 33 34 35 36 37 38 39 40 41 42 43 44 45 46 47 48 49 50

000
ASUS43 KMPX 161610
RWRMN
WEATHER ROUNDUP FOR MINNESOTA
NATIONAL WEATHER SERVICE TWIN CITIES/CHANHASSEN MN
1100 AM CDT MON OCT 16 2017


NOTE: "FAIR" INDICATES FEW OR NO CLOUDS BELOW 12,000 FEET WITH NO
SIGNIFICANT WEATHER AND/OR OBSTRUCTIONS TO VISIBILITY. N/A MEANS
CURRENT SKY AND/OR WEATHER CONDITIONS ARE NOT AVAILABLE.

MNZ060>063-068>070-161700-
   Twin Cities Metro

CITY           SKY/WX    TMP DP  RH WIND       PRES   REMARKS
TWIN CITIES    MOSUNNY   50  37  61 SW9       30.23F
ST PAUL        SUNNY     50  37  61 SW6       30.24F
CRYSTAL        SUNNY     51  36  56 SW10      30.21F
BLAINE         MOSUNNY   52  39  62 SW5       30.21S
LAKEVILLE      SUNNY     52  37  58 W6        30.23F
EDEN PRAIRIE   SUNNY     49  39  68 S6        30.22F
SOUTH ST PAUL  SUNNY     52  36  53 SW8       30.23S
LAKE ELMO      FAIR      50  39  66 SW6       30.23F
$$
MNZ001>005-007-008-013>017-022>024-027-028-161700-
   Northwest Minnesota

CITY           SKY/WX    TMP DP  RH WIND       PRES   REMARKS
BEMIDJI        SUNNY     51  34  53 SW12G17   30.03F
HALLOCK        CLOUDY    50  36  57 S17       29.88F
ROSEAU           N/A     52  37  58 SW15G24   29.92F
WARROAD        MOSUNNY   50  37  62 S9G18     29.94F
THIEF RVR FALL SUNNY     51  32  48 S21       29.96F
CROOKSTON      SUNNY     52  36  54 SW21      29.97F
FOSSTON        SUNNY     52  32  46 S18G25    30.01F
DETROIT LAKES  SUNNY     54  34  47 S16G22    30.05F
MOORHEAD       SUNNY     48  37  66 S10G17    30.04F
PARK RAPIDS    SUNNY     51  37  58 S12       30.07F
MAHNOMEN       FAIR      51  36  58 S16G22    30.02F
$$
MNZ006-009>011-018-025>026-161700-
   North Central Minnesota

CITY           SKY/WX    TMP DP  RH WIND       PRES   REMARKS
BAUDETTE       MOSUNNY   49  35  58 SW13      29.97F
FLAG ISLAND    SUNNY     52  36  54 SW18      29.90F
INTL FALLS     MOSUNNY   48  35  60 SW7       30.02F
WASKISH        CLOUDY    54  36  50 SW12G21   30.01F
BIG FORK       SUNNY     52  39  62 SW12      30.05F
LONGVILLE      SUNNY     52  36  54 SW12G20   30.09F
GRAND RAPIDS   SUNNY     50  35  56 SW10G16   30.10F
CRANE LAKE     MOSUNNY   45  37  76 S5        30.06F
ORR            MOSUNNY   46  36  66 S6        30.02F
COOK           MOSUNNY   48  36  61 SW7       30.06F
WALKER         FAIR      49  35  60 SW10      30.06F
$$
MNZ012-019>021-037-161700-
   Northeast Minnesota

CITY           SKY/WX    TMP DP  RH WIND       PRES   REMARKS
DULUTH         MOSUNNY   50  39  66 SW12      30.11F
ELY            MOSUNNY   46  36  66 W7        30.07F
HIBBING        SUNNY     47  37  68 SW7       30.09F
EVELETH        SUNNY     46  41  81 SW6       30.10F
DULUTH HARBOR  SUNNY     52  41  66 SW14      30.13F
TWO HARBORS    SUNNY     55  39  54 W12G22    30.09F
GRAND MARAIS     N/A     49  41  74 W7        30.09F
G MARAIS ARPRT MOSUNNY   45  30  57 SW6       30.08R
$$
MNZ029>031-032-039>041-046>048-054>057-064-161700-
   West Central Minnesota

CITY           SKY/WX    TMP DP  RH WIND       PRES   REMARKS
FERGUS FALLS   SUNNY     52  37  58 S14       30.10F
WHEATON        SUNNY     54  36  50 S12G17    30.11F
MORRIS         SUNNY     52  37  58 S15       30.11F
ALEXANDRIA     SUNNY     52  36  54 S13       30.14F
ELBOW LAKE     FAIR      52  37  56 S13G18    30.11F
WADENA         SUNNY     52  36  54 S9        30.09F
GLENWOOD       SUNNY     54  37  54 S13       30.14F
APPLETON       SUNNY     55  36  47 S10       30.13F
BENSON         SUNNY     54  37  54 SW8       30.16F
ORTONVILLE     SUNNY     55  39  54 N7        30.11F
MADISON        SUNNY     61  37  41 SW9       30.13F
WILLMAR        FAIR      54  39  58 SW5       30.19F
$$
MNZ033>034-036-042>043-049>051-058-059-161700-
   Central Minnesota

CITY           SKY/WX    TMP DP  RH WIND       PRES   REMARKS
ST CLOUD       SUNNY     52  38  58 SW10      30.18F
SAUK CENTRE    FAIR      52  36  54 S14       30.15F
PAYNESVILLE    SUNNY     53  37  55 SW10      30.18F
AITKIN         SUNNY     50  34  53 SW12      30.12S
PINE RIVER     SUNNY     48  34  57 SW7       30.13F
BRAINERD       SUNNY     50  37  61 SW12      30.14F
STAPLES        SUNNY     52  34  50 SW12      30.11F
LONG PRAIRIE   FAIR      52  36  54 S10       30.15F
LITTLE FALLS   SUNNY     50  30  46 S10       30.15F
LITCHFIELD     SUNNY     54  39  58 S5        30.20F
BUFFALO        SUNNY     50  37  61 SW5       30.21F
MAPLE LAKE     SUNNY     54  40  59 SW5       30.20F
HUTCHINSON     CLOUDY    54  39  57 S7        30.21F
$$
MNZ037-044-045-052-053-161700-
   East Central Minnesota

CITY           SKY/WX    TMP DP  RH WIND       PRES   REMARKS
PRINCETON      SUNNY     54  39  58 S8        30.19S
MORA           SUNNY     48  37  66 SW7       30.19S
CAMBRIDGE      SUNNY     52  39  62 S6        30.19F
RUSH CITY      SUNNY     49  40  69 SW6       30.19F
MOOSE LAKE     SUNNY     50  37  62 SW9       30.12F
HINCKLEY       FAIR      48  41  76 S7        30.17F
CLOQUET        SUNNY     50  37  62 S8        30.12F
MCGREGOR       SUNNY     52  36  54 SW12G17   30.14S
$$
MNZ071>073-080-081-089-090-097-098-161700-
   Southwest Minnesota

CITY           SKY/WX    TMP DP  RH WIND       PRES   REMARKS
MONTEVIDEO     SUNNY     57  39  51 SW9       30.16F
GRANITE FALLS  SUNNY     56  39  53 S13       30.19F HAZE
CANBY          SUNNY     58  35  42 SW14      30.16F
MARSHALL       SUNNY     59  35  40 SW15      30.17F
REDWOOD FALLS  SUNNY     56  34  43 S14       30.19F
OLIVIA         SUNNY     54  37  54 S9        30.18F
PIPESTONE      SUNNY     55  37  50 SW15G21   30.20F
WORTHINGTON    SUNNY     56  35  45 SW15G21   30.24F
JACKSON        SUNNY     55  34  44 S14       30.25S
TRACY          SUNNY     58  37  45 SW16G22   30.20F
SLAYTON        SUNNY     55  36  48 S15G21    30.22F
$$
MNZ065>067-074>077-082>085-091>093-161700-
   South Central Minnesota

CITY           SKY/WX    TMP DP  RH WIND       PRES   REMARKS
MANKATO        SUNNY     53  36  52 SW7       30.24F
NEW ULM        SUNNY     55  37  50 SW9       30.22F
ST JAMES       SUNNY     55  36  47 SW13      30.24F
FAIRMONT       SUNNY     56  36  47 SW12      30.26F
GLENCOE        SUNNY     53  37  55 SW7       30.21F
FARIBAULT      SUNNY     52  39  62 S7        30.25F
OWATONNA       SUNNY     54  37  54 SW5       30.25F
WASECA         SUNNY     52  36  54 SW7       30.26F
ALBERT LEA     SUNNY     55  39  54 SW7       30.27S
$$
MNZ078>079-086>088-094>096-161700-
   Southeast Minnesota

CITY           SKY/WX    TMP DP  RH WIND       PRES   REMARKS
ROCHESTER      SUNNY     54  39  57 W10       30.27R
RED WING       SUNNY     52  37  58 CALM      30.23S
STANTON        SUNNY     53  38  57 SW7       30.22F
DODGE CENTER   SUNNY     52  36  54 SW10      30.25S
WINONA         SUNNY     54  43  66 CALM      30.25F
AUSTIN         SUNNY     52  39  62 SW6       30.27S
PRESTON        SUNNY     52  38  58 SW7       30.27S
$$
ABBREVIATIONS USED IN REMARKS
   TC - TEMPERATURES IN CELSIUS
  WCI - WIND CHILL INDEX
   HX - HEAT INDEX
  VSB - VISIBILITY
$$




USA.gov is the U.S. government's official web portal to all federal, state and local government web resources and services.